Location: Follega
(52.8850°N, 5.7362°E)
Time: 10:41:13
(UTC+00:00)

STARLINK-1230 - Pass Details

Date: 01 June 2020
Orbit: 549 x 550 km, 53.0° (Epoch: 10 July)

Event Time Altitude Azimuth Distance (km) Brightness Sun altitude
Rises 21:44:44 0° 260° (W) 2,718 7.4 -11.2°
Reaches altitude 10° 21:46:58 10° 260° (W) 1,826 6.5 -11.3°
Maximum altitude 21:51:07 88° 171° (S) 557 3.6 -11.6°
Drops below altitude 10° 21:55:17 10° 83° (E) 1,830 6.1 -11.8°
Sets 21:57:32 0° 83° (E) 2,725 7.0 -12.0°
